Regional Weather Roundup
Issued by NWS

Home | Current Version | Previous Version | Text Only | Print | Product List | Glossary On
Versions: 1 2 3 4 5 6 7 8 9 10 11 12 13 14 15 16 17 18 19 20 21 22 23 24 25 26 27 28 29 30 31 32 33 34 35 36 37 38 39 40 41 42 43 44 45 46 47 48 49 50
000
ASUS43 KMKX 221000
RWRWI

WISCONSIN REGIONAL WEATHER ROUNDUP
NATIONAL WEATHER SERVICE MILWAUKEE/SULLIVAN WI
500 AM CDT FRI AUG 22 2014

NOTE: "FAIR" INDICATES FEW OR NO CLOUDS BELOW 12,000 FEET WITH NO
SIGNIFICANT WEATHER AND/OR OBSTRUCTIONS TO VISIBILITY.

WIZ001-002-006>008-014>016-023>028-221100-
NORTHWEST WISCONSIN

CITY           SKY/WX    TMP DP  RH WIND       PRES   REMARKS
SUPERIOR ARPT  RAIN      60  60  99 E8G16     29.92R
ASHLAND        CLOUDY    66  64  93 N5        29.91R FOG
HAYWARD        CLOUDY    68  68 100 NE3       29.90R FOG
SIREN          CLOUDY    65  64  97 N6        29.89R FOG
RICE LAKE      CLOUDY    71  69  95 CALM      29.89R FOG
LADYSMITH      CLOUDY    69  68  96 E5        29.91R FOG
EAU CLAIRE     MOCLDY    70  69  97 NE3       29.86R FOG
MENOMONIE      CLOUDY    71  70  98 CALM      29.87R FOG
NEW RICHMOND   FOG       71  71 100 CALM      29.89R VSB 1
OSCEOLA        CLOUDY    68  68 100 CALM      29.91R FOG
$$

WIZ003>005-009-010-017-018-221100-
NORTH CENTRAL WISCONSIN

CITY           SKY/WX    TMP DP  RH WIND       PRES   REMARKS
WOODRUFF       CLOUDY    64  62  91 SE5       29.93S FOG
RHINELANDER    FOG       63  63 100 E7        29.95R VSB 1/2
EAGLE RIVER    CLOUDY    63  63 100 CALM      29.94R FOG
LAND O LAKES   LGT RAIN  64  63  99 CALM      29.95S
PHILLIPS       CLOUDY    65  65  99 CALM      29.92R FOG
TOMAHAWK       FOG       64  63  96 CALM      29.93R VSB 1/2
MEDFORD        FOG       65  65 100 SE5       29.91R VSB 1/2
MERRILL        FOG       65  65 100 CALM      29.92R VSB 1/2
$$

WIZ029-030-035-036-043>047-221100-
CENTRAL WISCONSIN

CITY           SKY/WX    TMP DP  RH WIND       PRES   REMARKS
WAUSAU         FOG       65  65 100 E5        29.91R VSB 1/4
MOSINEE        FOG       64  64 100 CALM      29.92R VSB 1/4
MARSHFIELD     FOG       70  68  93 SE3       29.92R VSB 1/4
STEVENS POINT  FOG       65  65 100 CALM      29.91S VSB 1/4
WAUPACA        FOG       71  69  95 CALM      29.91R VSB 1/4
WAUTOMA        FOG       72  72 100 CALM      29.91R VSB<1/4
WISC RAPIDS    CLOUDY    70  70 100 SE3       29.92R FOG
CAMP DOUGLAS   FOG       68  68 100 E5        29.91R VSB 3/4
$$

WIZ011>013-019>022-031-037>040-048>050-221100-
NORTHEAST WISCONSIN

CITY           SKY/WX    TMP DP  RH WIND       PRES   REMARKS
ANTIGO         FOG       63  63 100 CALM      29.94R VSB 1/2
STURGEON BAY   CLOUDY    66  63  88 SE5       29.93R
GREEN BAY      CLOUDY    66  66 100 CALM      29.92R FOG
MANITOWOC      CLOUDY    66  64  94 SE5       29.92R FOG
APPLETON       CLOUDY    66  64  94 E3        29.92R FOG
CLINTONVILLE   FOG       64  64 100 CALM      29.91R VSB 1/4
OSHKOSH        CLOUDY    70  69  97 S9        29.92R FOG
$$

WIZ032>034-041-042-053>061-221100-
SOUTHWEST WISCONSIN

CITY           SKY/WX    TMP DP  RH WIND       PRES   REMARKS
LA CROSSE      CLOUDY    74  71  91 S6        29.87R
SPARTA         CLEAR     65  64  97 CALM      29.90R FOG
VIROQUA        CLOUDY    70  70 100 CALM      29.91S
BOSCOBEL       FOG       69  67  93 CALM      29.89S VSB 1/4
PRAIRIE DU CHI CLOUDY    71  69  94 E3        29.88S FOG
PLATTEVILLE    MOCLDY    71  70  96 E6        29.91S VSB 1
$$

WIZ056-057-062-063-064-067-068-221100-
SOUTH CENTRAL WISCONSIN

CITY           SKY/WX    TMP DP  RH WIND       PRES   REMARKS
BARABOO/DELLS  MOCLDY    69  67  94 CALM      29.91R FOG
LONE ROCK      FOG       72  68  87 CALM      29.90S VSB 1/2
WATERTOWN      FOG       70  70 100 CALM      29.92R VSB 1/2
MADISON        CLOUDY    73  72  96 S5        29.91R FOG
MIDDLETON      CLOUDY    71  71 100 CALM      29.92R
MONROE         FOG       72  72 100 S3        29.92R VSB 1/4
JANESVILLE     CLOUDY    73  72  94 CALM      29.90F FOG
$$

WIZ051-052-058>065-066-070>072-221100-
SOUTHEAST WISCONSIN

CITY           SKY/WX    TMP DP  RH WIND       PRES   REMARKS
MILWAUKEE      FOG       71  69  93 SW5       29.94R VSB 1/4
WAUKESHA       FOG       68  68 100 CALM      29.94R VSB 1/2
MILWAUKEE/TIMM FOG       70  66  88 CALM      29.93R VSB 3/4
RACINE         CLOUDY    70  69  97 CALM      29.93R FOG
BURLINGTON     FOG       69  69 100 CALM      29.92S VSB 3/4
KENOSHA        FOG       70  70 100 CALM      29.92R VSB 1/2
FOND DU LAC    CLOUDY    69  67  93 S6        29.93R
SHEBOYGAN      FOG       67  66  97 CALM      29.93R VSB 1/4
WEST BEND      FOG       68  64  88 CALM      29.93R VSB 1/2
JUNEAU         HAZE      70  46  41 CALM      29.94R VSB<1/4
$$

LSZ147-162-221100-
LAKE SUPERIOR

STATION/POSITION TIME  TEMP    WIND        PRES    WAVE
                       AIR SEA DIR/SP/G            HT/PER
                 (UTC) (F)     (DEG/KT/KT) (MB)    (FT/S)
W MID LAKE BUOY  0850   58 59   40/ 14/ 16 1013.0F   2/ 4
DEVILS ISLAND    0900   59      50/ 15/ 17 1012.9R
PORT WING        0940   59      40/ 11/ 14 1013.2R
SAXON HARBOR     0900   65        CALM     1012.2S
$$

LMZ867-665-643>646-221100-
LAKE MICHIGAN

STATION/POSITION TIME  TEMP    WIND        PRES    WAVE
                       AIR SEA DIR/SP/G            HT/PER
                 (UTC) (F)     (DEG/KT/KT) (MB)    (FT/S)
N MID LAKE BUOY  0750   65 64   70/ 10/ 10 1013.1F   0
NORTHPORT PIER   0900   65     110/  5/  7 1013.2F
SISTER BAY       0811   64        CALM       N/A
KEWAUNEE LAKESHO 0900   66     140/  3/  5 1011.7F
SHEBOYGAN LAKESH 0900   66 65   70/  2/  2 1012.6F
ATWATER BUOY     0900   69     160/  6/  8 1013.7R
MILWAUKEE LAKESH 0900   69     130/  4/  5   N/A
S MID LAKE BUOY  0850   69 69  160/  4/  6 1012.9R   0
KENOSHA   LAKESH 0900   71     200/  5/  6 1012.9R
$$

TC  - TEMPERATURE IN CELSIUS
VSB - VISIBILITY IN STATUTE MILES
WCI - WIND CHILL INDEX
HX  - HEAT INDEX



USA.gov is the U.S. government's official web portal to all federal, state and local government web resources and services.